Regional Weather Roundup
Issued by NWS

Home | Current Version | Previous Version | Text Only | Print | Product List | Glossary Off
Versions: 1 2 3 4 5 6 7 8 9 10 11 12 13 14 15 16 17 18 19 20 21 22 23 24 25 26 27 28 29 30 31 32 33 34 35 36 37 38 39 40 41 42 43 44 45 46 47 48 49 50

000
ASUS43 KMKX 201559
RWRWI

WISCONSIN REGIONAL WEATHER ROUNDUP
NATIONAL WEATHER SERVICE MILWAUKEE/SULLIVAN WI
1000 AM CST SAT JAN 20 2018

NOTE: "FAIR" INDICATES FEW OR NO CLOUDS BELOW 12,000 FEET WITH NO
SIGNIFICANT WEATHER AND/OR OBSTRUCTIONS TO VISIBILITY.

WIZ001-002-006>008-014>016-023>028-201700-
NORTHWEST WISCONSIN

CITY           SKY/WX    TMP DP  RH WIND       PRES   REMARKS
SUPERIOR ARPT  CLOUDY    30  28  92 SW6       29.84R WCI  24
ASHLAND        FAIR      32  28  85 SW8       29.85R WCI  25
HAYWARD        CLOUDY    25  21  85 CALM      29.85R
SIREN          CLOUDY    29  28  98 CALM      29.86R
CUMBERLAND     CLOUDY    27  25  93 S3        29.85R FOG
RICE LAKE      FAIR      23  22  98 CALM      29.87R
CHETEK         CLOUDY    22  22  97 CALM      29.86R
LADYSMITH      FAIR      22  21  96 CALM      29.87R FOG
EAU CLAIRE     PTSUNNY   28  28 100 S3        29.88R FOG
MENOMONIE      PTSUNNY   28  28  98 CALM      29.88R
NEW RICHMOND   CLOUDY    27  26  98 CALM      29.87R
OSCEOLA        CLOUDY    27  27 100 CALM      29.90R
$$

WIZ003>005-009-010-017-018-201700-
NORTH CENTRAL WISCONSIN

CITY           SKY/WX    TMP DP  RH WIND       PRES   REMARKS
MANITOWISH WTR FAIR      25  25 100 CALM      29.83R
ARBOR VITAE    FAIR      32  31  95 CALM      29.82R
WOODRUFF       FAIR      32  31  95 CALM      29.82R
RHINELANDER    FAIR      30  26  85 W6        29.84R WCI  24
EAGLE RIVER    FAIR      30  30 100 W7        29.82R WCI  23
LAND O LAKES   FAIR      29  29  99 W3        29.83R
PHILLIPS       CLOUDY    24  24 100 CALM      29.84R
TOMAHAWK       FAIR      27  26  96 CALM      29.85R
MEDFORD        FAIR      27  26  97 CALM      29.83R FOG
MERRILL        PTSUNNY   25  25 100 CALM      29.86R FOG
$$

WIZ029-030-035-036-043>047-201700-
CENTRAL WISCONSIN

CITY           SKY/WX    TMP DP  RH WIND       PRES   REMARKS
WAUSAU         PTSUNNY   28  26  92 CALM      29.84R
MOSINEE        PTSUNNY   30  28  93 CALM      29.87R
MARSHFIELD     FAIR      31  29  92 CALM      29.84R
STEVENS POINT  FAIR      25  25 100 S3        29.88R
WAUPACA        FAIR      33  30  87 CALM      29.89R
WAUTOMA        FAIR      31  29  92 CALM      29.89
WISC RAPIDS    FAIR      29  27  92 CALM      29.88R FOG
CAMP DOUGLAS   PTSUNNY   30  30 100 CALM      29.89R
$$

WIZ011>013-019>022-031-037>040-048>050-201700-
NORTHEAST WISCONSIN

CITY           SKY/WX    TMP DP  RH WIND       PRES   REMARKS
ANTIGO         FAIR      27  27 100 NW3       29.84R
SHAWANO        FAIR      36  29  76 W6        29.88R WCI  31
OCONTO         FAIR      33  28  81 CALM      29.87R
STURGEON BAY   FAIR      35  28  75 W7        29.87R WCI  29
GREEN BAY      FAIR      34  28  79 SW3       29.88R
MANITOWOC      FAIR      36  29  75 W9        29.89R WCI  29
APPLETON       PTSUNNY   32  27  80 W6        29.86R WCI  26
CLINTONVILLE   FAIR      32  28  86 CALM      29.88R
OSHKOSH        FAIR      36  30  79 W5        29.89R WCI  32
$$

WIZ032>034-041-042-053>061-201700-
SOUTHWEST WISCONSIN

CITY           SKY/WX    TMP DP  RH WIND       PRES   REMARKS
LA CROSSE      FAIR      29  28  96 S7        29.91R WCI  22
SPARTA         FAIR      26  25  96 CALM      29.90R
VIROQUA        FAIR      33  33 100 SW5       29.89R WCI  28
BOSCOBEL       FAIR      34  28  79 CALM      29.91R
PRAIRIE DU CHI FAIR      30  27  90 CALM      29.90S
PLATTEVILLE    FAIR      34  31  88 CALM      29.90R
$$

WIZ056-057-062-063-064-067-068-201700-
SOUTH CENTRAL WISCONSIN

CITY           SKY/WX    TMP DP  RH WIND       PRES   REMARKS
REEDSBURG      FAIR      31  29  94 S3        29.89R
BARABOO/DELLS  FAIR      34  30  86 CALM      29.88R
LONE ROCK      NOT AVBL
MINERAL POINT  FAIR      36  32  87 CALM      29.89R
MADISON        PTSUNNY   36  29  75 CALM      29.90R
MIDDLETON      FAIR      40  31  72 W3        29.89R
WATERTOWN      FAIR      35  30  81 CALM      29.89R
MONROE         FAIR      36  30  80 SW6       29.89R WCI  31
JANESVILLE     SUNNY     37  30  75 CALM      29.90R
$$

WIZ051-052-058>065-066-070>072-201700-
SOUTHEAST WISCONSIN

CITY           SKY/WX    TMP DP  RH WIND       PRES   REMARKS
MILWAUKEE      PTSUNNY   41  30  65 W7        29.89R
WAUKESHA       SUNNY     37  27  65 W6        29.90R WCI  33
MILWAUKEE/TIMM SUNNY     37  27  65 W8        29.89R WCI  31
RACINE         FAIR      40  30  67 W8        29.91R WCI  34
BURLINGTON     FAIR      38  29  70 W5        29.90R WCI  35
KENOSHA        FAIR      38  29  70 W7        29.90R WCI  33
FOND DU LAC    FAIR      37  28  70 VRB3      29.88R
SHEBOYGAN      FAIR      40  32  73 NW7       29.88R
WEST BEND      FAIR      39  32  75 W5        29.88R
JUNEAU         FAIR      32  28  85 CALM      29.90R
$$

LSZ147-162-201700-
LAKE SUPERIOR

STATION/POSITION TIME  TEMP    WIND        PRES    WAVE
                       AIR SEA DIR/SP/G            HT/PER
                 (UTC) (F)     (DEG/KT/KT) (MB)    (FT/S)
DEVILS ISLAND    1500   33     230/ 16/ 19 1009.8R
SAXON HARBOR     1540   35     200/  7/ 12 1010.2R
$$

LMZ867-665-643>646-201700-
LAKE MICHIGAN

STATION/POSITION TIME  TEMP    WIND        PRES    WAVE
                       AIR SEA DIR/SP/G            HT/PER
                 (UTC) (F)     (DEG/KT/KT) (MB)    (FT/S)
NORTHPORT PIER   1540   37     280/  5/ 14 1010.8R
KEWAUNEE LAKESHO 1530   37     280/  5/  6 1010.7R
SHEBOYGAN LAKESH 1500   38     270/ 11/ 13 1011.0R
PORT WASHINGTON  1540   44     290/  8/ 13 1012.5R
MILWAUKEE LAKESH 1530   39     250/  5/  7   N/A
KENOSHA   LAKESH 1500   36     250/  5/  9 1012.2
$$

TC  - TEMPERATURE IN CELSIUS
VSB - VISIBILITY IN STATUTE MILES
WCI - WIND CHILL INDEX
HX  - HEAT INDEX





USA.gov is the U.S. government's official web portal to all federal, state and local government web resources and services.